Location: Góry Miechowskie
(50.3599°N, 20.1803°E)
Time: 16:46:58
(UTC+00:00)

Vanguard 1 Rocket - Pass Details

Date: 18 September 2024
Orbit: 650 x 4218 km, 34.3° (Epoch: 07 October)

Event Time Altitude Azimuth Distance (km) Brightness Sun altitude
Rises 22:39:34 0° 166° (SSE) 4,747 - -38.2°
Reaches altitude 10° 22:47:35 10° 128° (SE) 4,784 - -38.2°
Maximum altitude 22:49:08 10° 122° (ESE) 4,948 - -38.1°
Exits shadow 22:49:48 10° 119° (ESE) 5,031 10.9 -38.1°
Drops below altitude 10° 22:50:48 10° 115° (ESE) 5,165 11.0 -38.1°
Sets 23:03:03 0° 83° (E) 7,408 12.2 -37.9°
